This is the latest recevied weather packets stored in our database for station/object KD2VWU. If no packets are shown the sender has not sent any weather packets the latest 10 day(s).
| Time | Temp. | Humidity | Pressure | Rain* | Wind** | Luminosity | Snow |
|---|---|---|---|---|---|---|---|
| 1777643754 | 10° C | 62% | 1009.7 hPa | 0 mm | - | - | - |
| 1777643452 | 10° C | 61% | 1009.7 hPa | 0 mm | - | - | - |
| 1777643149 | 10° C | 59% | 1010.1 hPa | 0 mm | - | - | - |
| 1777642845 | 10° C | 63% | 1009.9 hPa | 0 mm | - | - | - |
| 1777642542 | 9.44° C | 62% | 1009.8 hPa | 0 mm | - | - | - |
| 1777642238 | 9.44° C | 61% | 1009.7 hPa | 0 mm | - | - | - |
| 1777641936 | 9.44° C | 64% | 1009.6 hPa | 0 mm | - | - | - |
| 1777641632 | 9.44° C | 65% | 1009.8 hPa | 0 mm | - | - | - |
| 1777641326 | 8.89° C | 66% | 1009.9 hPa | 0 mm | - | - | - |
| 1777641022 | 8.89° C | 65% | 1009.9 hPa | 0 mm | - | - | - |
| 1777640718 | 8.89° C | 65% | 1009.8 hPa | 0 mm | - | - | - |
| 1777640416 | 8.89° C | 68% | 1009.9 hPa | 0 mm | - | - | - |
| 1777640113 | 8.89° C | 65% | 1009.9 hPa | 0 mm | - | - | - |
| 1777639809 | 8.89° C | 69% | 1009.7 hPa | 0 mm | - | - | - |
| 1777639506 | 8.33° C | 72% | 1009.9 hPa | 0 mm | - | - | - |
| 1777639203 | 8.33° C | 69% | 1009.9 hPa | 0 mm | - | - | - |
| 1777638899 | 7.78° C | 70% | 1009.8 hPa | 0 mm | - | - | - |
| 1777638595 | 7.78° C | 69% | 1009.8 hPa | 0 mm | - | - | - |
| 1777638292 | 7.78° C | 72% | 1010.1 hPa | 0 mm | - | - | - |
| 1777637988 | 7.78° C | 71% | 1009.7 hPa | 0 mm | - | - | - |
| 1777637684 | 7.22° C | 71% | 1009.7 hPa | 0 mm | - | - | - |
| 1777637382 | 7.22° C | 74% | 1009.7 hPa | 0 mm | - | - | - |
| 1777637078 | 6.67° C | 74% | 1009.8 hPa | 0 mm | - | - | - |
| 1777636774 | 6.67° C | 75% | 1009.8 hPa | 0 mm | - | - | - |
| 1777636471 | 6.67° C | 76% | 1009.9 hPa | 0 mm | - | - | - |
* Rain latest hour (hover to see other rain measurements)
** Current wind speed in m/s (hover to see current wind gust speed)